DLH130 EDDH-EGKK

Flight info

Callsign DLH130
Flight time 1h 28m
Altitude 36000
Route WSN5G WSN N125 ITMIZ DCT GALSO Q63 ARREK Y4 TEBRA
Aircraft A321/M-SDE3FGHIRWY/LB1

Departure

Time 2026-04-24 21:51
Airport Hamburg Helmut Schmidt Airport (EDDH)

Arrival

Time 2026-04-24 23:19
Airport London Gatwick Airport (EGKK)
Time Latitude Longitude Altitude Speed Heading
2026-04-24 21:14 53.62805 10.00239 62 ft 0 kts 63°
2026-04-24 21:41 53.62804 10.00234 62 ft 5 kts 63°
2026-04-24 21:42 53.62793 10.00197 62 ft 3 kts 64°
2026-04-24 21:42 53.62785 10.00170 62 ft 2 kts 63°
2026-04-24 21:42 53.62777 10.00149 62 ft 1 kts 45°
2026-04-24 21:42 53.62768 10.00139 62 ft 1 kts 14°
2026-04-24 21:43 53.62758 10.00138 62 ft 1 kts 338°
2026-04-24 21:43 53.62750 10.00144 62 ft 2 kts 335°
2026-04-24 21:43 53.62739 10.00152 62 ft 0 kts 333°
2026-04-24 21:45 53.62739 10.00153 62 ft 0 kts 335°
2026-04-24 21:45 53.62739 10.00152 62 ft 0 kts 335°
2026-04-24 21:49 53.62745 10.00149 62 ft 2 kts 336°
2026-04-24 21:49 53.62767 10.00132 62 ft 4 kts 337°
2026-04-24 21:49 53.62806 10.00103 62 ft 7 kts 334°
2026-04-24 21:49 53.62848 10.00051 62 ft 7 kts 299°
2026-04-24 21:50 53.62843 9.99960 62 ft 7 kts 244°
2026-04-24 21:50 53.62817 9.99862 62 ft 10 kts 254°
2026-04-24 21:50 53.62846 9.99761 62 ft 11 kts 327°
2026-04-24 21:50 53.62939 9.99685 62 ft 32 kts 335°
2026-04-24 21:51 53.63384 9.99297 62 ft 110 kts 332°
2026-04-24 21:51 53.64257 9.98547 161 ft 161 kts 333°
2026-04-24 21:51 53.65290 9.97672 713 ft 172 kts 333°
2026-04-24 21:51 53.66343 9.96780 1375 ft 175 kts 333°
2026-04-24 21:52 53.67435 9.95844 2013 ft 180 kts 333°
2026-04-24 21:52 53.68588 9.94848 2475 ft 196 kts 333°
2026-04-24 21:52 53.69856 9.93726 2909 ft 214 kts 328°
2026-04-24 21:52 53.70937 9.91923 3302 ft 235 kts 300°
2026-04-24 21:53 53.71374 9.89190 3829 ft 250 kts 267°
2026-04-24 21:53 53.70997 9.86352 4467 ft 253 kts 251°
2026-04-24 21:53 53.70409 9.83518 4810 ft 264 kts 250°
2026-04-24 21:53 53.69776 9.80534 5281 ft 274 kts 250°
2026-04-24 21:54 53.69154 9.77523 6255 ft 273 kts 251°
2026-04-24 21:54 53.68547 9.74529 7153 ft 275 kts 251°
2026-04-24 21:54 53.67933 9.71458 7988 ft 279 kts 251°
2026-04-24 21:54 53.67317 9.68356 8810 ft 282 kts 251°
2026-04-24 21:55 53.66697 9.65233 9600 ft 285 kts 251°
2026-04-24 21:55 53.66069 9.62072 10323 ft 290 kts 251°
2026-04-24 21:55 53.65308 9.58800 10748 ft 306 kts 245°
2026-04-24 21:55 53.64262 9.55625 11348 ft 314 kts 237°
2026-04-24 21:56 53.63030 9.52635 12087 ft 316 kts 234°
2026-04-24 21:56 53.61726 9.49603 12796 ft 319 kts 234°
2026-04-24 21:56 53.60421 9.46592 13463 ft 322 kts 234°
2026-04-24 21:56 53.59099 9.43538 14118 ft 326 kts 234°
2026-04-24 21:57 53.57761 9.40440 14760 ft 329 kts 234°
2026-04-24 21:57 53.56424 9.37342 15378 ft 332 kts 234°
2026-04-24 21:57 53.55054 9.34169 15988 ft 335 kts 233°
2026-04-24 21:57 53.53681 9.30977 16580 ft 338 kts 234°
2026-04-24 21:58 53.52316 9.27806 17147 ft 341 kts 233°
2026-04-24 21:58 53.50906 9.24540 17713 ft 344 kts 233°
2026-04-24 21:58 53.49506 9.21303 18255 ft 347 kts 233°
2026-04-24 21:58 53.48086 9.18029 18787 ft 350 kts 233°
2026-04-24 21:59 53.46677 9.14783 19298 ft 352 kts 233°
2026-04-24 21:59 53.45259 9.11523 19795 ft 355 kts 233°
2026-04-24 21:59 53.43849 9.08283 20275 ft 358 kts 233°
2026-04-24 21:59 53.42393 9.04944 20755 ft 360 kts 233°
2026-04-24 22:00 53.40911 9.01554 21228 ft 363 kts 233°
2026-04-24 22:00 53.39416 8.98136 21692 ft 366 kts 233°
2026-04-24 22:00 53.37900 8.94679 22149 ft 368 kts 233°
2026-04-24 22:00 53.36402 8.91241 22587 ft 371 kts 235°
2026-04-24 22:01 53.35026 8.87553 23020 ft 373 kts 241°
2026-04-24 22:01 53.33899 8.83659 23441 ft 376 kts 248°
2026-04-24 22:01 53.32950 8.79544 23864 ft 378 kts 250°
2026-04-24 22:01 53.32052 8.75424 24270 ft 381 kts 250°
2026-04-24 22:02 53.31147 8.71271 24668 ft 383 kts 250°
2026-04-24 22:02 53.30219 8.67043 25062 ft 385 kts 250°
2026-04-24 22:02 53.29304 8.62885 25439 ft 388 kts 250°
2026-04-24 22:02 53.28670 8.59982 25696 ft 389 kts 250°
2026-04-24 22:03 53.27744 8.55747 26063 ft 391 kts 250°
2026-04-24 22:03 53.26816 8.51507 26421 ft 394 kts 251°
2026-04-24 22:03 53.25950 8.47183 26770 ft 396 kts 253°
2026-04-24 22:03 53.25125 8.42796 27117 ft 398 kts 253°
2026-04-24 22:04 53.24297 8.38379 27454 ft 400 kts 253°
2026-04-24 22:04 53.23482 8.34046 27776 ft 402 kts 252°
2026-04-24 22:04 53.22655 8.29661 28093 ft 404 kts 252°
2026-04-24 22:04 53.21892 8.25626 28377 ft 406 kts 252°
2026-04-24 22:05 53.21000 8.20933 28700 ft 408 kts 252°
2026-04-24 22:05 53.20596 8.18815 28843 ft 409 kts 252°
2026-04-24 22:05 53.19725 8.14258 29140 ft 411 kts 252°
2026-04-24 22:05 53.18860 8.09719 29428 ft 413 kts 252°
2026-04-24 22:06 53.18002 8.05149 29711 ft 415 kts 252°
2026-04-24 22:06 53.17146 8.00595 29985 ft 417 kts 252°
2026-04-24 22:06 53.16268 7.95937 30259 ft 419 kts 252°
2026-04-24 22:06 53.15392 7.91315 30524 ft 420 kts 252°
2026-04-24 22:07 53.14506 7.86655 30785 ft 422 kts 252°
2026-04-24 22:07 53.13624 7.82036 31039 ft 424 kts 252°
2026-04-24 22:07 53.12725 7.77340 31354 ft 424 kts 252°
2026-04-24 22:07 53.11829 7.72667 31710 ft 423 kts 252°
2026-04-24 22:08 53.10904 7.68029 32057 ft 422 kts 250°
2026-04-24 22:08 53.09842 7.63506 32391 ft 421 kts 247°
2026-04-24 22:08 53.08640 7.59072 32718 ft 420 kts 245°
2026-04-24 22:08 53.07417 7.54685 33039 ft 420 kts 245°
2026-04-24 22:09 53.06190 7.50305 33356 ft 419 kts 245°
2026-04-24 22:09 53.04969 7.45952 33669 ft 419 kts 245°
2026-04-24 22:09 53.03739 7.41577 33981 ft 418 kts 245°
2026-04-24 22:09 53.02505 7.37188 34269 ft 418 kts 245°
2026-04-24 22:10 53.01269 7.32799 34520 ft 419 kts 244°
2026-04-24 22:10 53.00039 7.28426 34757 ft 420 kts 244°
2026-04-24 22:10 52.98795 7.24015 34997 ft 421 kts 244°
2026-04-24 22:10 52.97549 7.19606 35239 ft 422 kts 244°
2026-04-24 22:11 52.96316 7.15252 35474 ft 423 kts 244°
2026-04-24 22:11 52.95051 7.10801 35708 ft 424 kts 244°
2026-04-24 22:11 52.93798 7.06398 35829 ft 426 kts 244°
2026-04-24 22:12 52.91300 6.97648 35840 ft 426 kts 244°
2026-04-24 22:12 52.88748 6.88774 35841 ft 426 kts 244°
2026-04-24 22:13 52.86173 6.79920 35841 ft 426 kts 244°
2026-04-24 22:13 52.83613 6.71101 35841 ft 426 kts 244°
2026-04-24 22:14 52.81057 6.62301 35841 ft 426 kts 244°
2026-04-24 22:14 52.78487 6.53478 35841 ft 426 kts 244°
2026-04-24 22:15 52.75913 6.44668 35841 ft 426 kts 244°
2026-04-24 22:15 52.73342 6.35897 35841 ft 426 kts 244°
2026-04-24 22:16 52.70760 6.27100 35841 ft 426 kts 244°
2026-04-24 22:16 52.68174 6.18325 35841 ft 426 kts 244°
2026-04-24 22:17 52.65584 6.09579 35841 ft 426 kts 244°
2026-04-24 22:17 52.62990 6.00858 35841 ft 426 kts 244°
2026-04-24 22:18 52.60369 5.92080 35841 ft 425 kts 244°
2026-04-24 22:18 52.57774 5.83421 35841 ft 424 kts 244°
2026-04-24 22:19 52.55164 5.74742 35841 ft 424 kts 244°
2026-04-24 22:19 52.52537 5.66041 35841 ft 424 kts 244°
2026-04-24 22:20 52.49921 5.57406 35841 ft 424 kts 244°
2026-04-24 22:20 52.47291 5.48756 35841 ft 424 kts 244°
2026-04-24 22:21 52.44654 5.40116 35841 ft 424 kts 244°
2026-04-24 22:21 52.42005 5.31460 35841 ft 424 kts 243°
2026-04-24 22:22 52.39370 5.22858 35841 ft 424 kts 243°
2026-04-24 22:22 52.36713 5.14232 35841 ft 424 kts 243°
2026-04-24 22:23 52.34047 5.05613 35841 ft 424 kts 243°
2026-04-24 22:23 52.31364 4.96977 35841 ft 424 kts 243°
2026-04-24 22:24 52.28731 4.88530 35841 ft 424 kts 243°
2026-04-24 22:24 52.26067 4.80014 35841 ft 424 kts 243°
2026-04-24 22:25 52.23392 4.71491 35841 ft 424 kts 243°
2026-04-24 22:25 52.20697 4.62940 35841 ft 424 kts 243°
2026-04-24 22:26 52.17983 4.54353 35841 ft 424 kts 243°
2026-04-24 22:26 52.15280 4.45834 35842 ft 424 kts 243°
2026-04-24 22:27 52.12571 4.37324 35842 ft 424 kts 243°
2026-04-24 22:27 52.09855 4.28808 35841 ft 424 kts 242°
2026-04-24 22:28 52.07165 4.20396 35841 ft 424 kts 242°
2026-04-24 22:28 52.04431 4.11892 35841 ft 424 kts 242°
2026-04-24 22:29 52.00322 3.99172 35841 ft 424 kts 242°
2026-04-24 22:29 51.97594 3.90763 35841 ft 424 kts 242°
2026-04-24 22:30 51.94832 3.82280 35841 ft 424 kts 242°
2026-04-24 22:30 51.92079 3.73858 35841 ft 424 kts 242°
2026-04-24 22:31 51.89325 3.65468 35841 ft 424 kts 242°
2026-04-24 22:31 51.86534 3.57068 35841 ft 424 kts 242°
2026-04-24 22:32 51.83761 3.48699 35841 ft 424 kts 242°
2026-04-24 22:32 51.80969 3.40274 35841 ft 424 kts 242°
2026-04-24 22:33 51.78184 3.31892 35841 ft 424 kts 242°
2026-04-24 22:33 51.75573 3.23397 35841 ft 424 kts 246°
2026-04-24 22:34 51.73560 3.14461 35842 ft 424 kts 253°
2026-04-24 22:34 51.72226 3.05221 35842 ft 424 kts 260°
2026-04-24 22:35 51.71404 2.95915 35841 ft 424 kts 262°
2026-04-24 22:35 51.70609 2.86562 35841 ft 424 kts 262°
2026-04-24 22:36 51.69790 2.77160 35841 ft 424 kts 262°
2026-04-24 22:36 51.68961 2.67792 35841 ft 422 kts 262°
2026-04-24 22:37 51.68121 2.58388 35841 ft 422 kts 262°
2026-04-24 22:37 51.67280 2.49083 35841 ft 422 kts 262°
2026-04-24 22:38 51.66423 2.39674 35841 ft 422 kts 262°
2026-04-24 22:38 51.65561 2.30311 35841 ft 422 kts 261°
2026-04-24 22:39 51.64698 2.21023 35841 ft 422 kts 261°
2026-04-24 22:39 51.63820 2.11684 35841 ft 422 kts 261°
2026-04-24 22:40 51.62956 2.02366 35841 ft 422 kts 261°
2026-04-24 22:40 51.62089 1.93011 35841 ft 422 kts 261°
2026-04-24 22:41 51.60672 1.83869 35838 ft 422 kts 244°
2026-04-24 22:41 51.59196 1.79860 35839 ft 422 kts 232°
2026-04-24 22:41 51.57952 1.77408 35846 ft 422 kts 229°
2026-04-24 22:42 51.53405 1.69269 35690 ft 421 kts 228°
2026-04-24 22:42 51.51431 1.65742 34916 ft 428 kts 228°
2026-04-24 22:42 51.49443 1.62160 34005 ft 436 kts 229°
2026-04-24 22:43 51.47398 1.58553 33299 ft 439 kts 227°
2026-04-24 22:43 51.45314 1.55025 32688 ft 439 kts 226°
2026-04-24 22:43 51.43205 1.51496 32058 ft 439 kts 226°
2026-04-24 22:43 51.41105 1.47985 31402 ft 440 kts 226°
2026-04-24 22:44 51.38988 1.44445 30725 ft 441 kts 226°
2026-04-24 22:44 51.36882 1.40921 30064 ft 441 kts 226°
2026-04-24 22:44 51.34795 1.37432 29587 ft 437 kts 226°
2026-04-24 22:44 51.32704 1.33939 29127 ft 432 kts 226°
2026-04-24 22:45 51.30637 1.30476 28636 ft 429 kts 226°
2026-04-24 22:45 51.28597 1.27062 28145 ft 426 kts 226°
2026-04-24 22:45 51.26570 1.23678 27658 ft 422 kts 226°
2026-04-24 22:45 51.24554 1.20319 27176 ft 419 kts 226°
2026-04-24 22:46 51.22545 1.16981 26696 ft 416 kts 226°
2026-04-24 22:46 51.20547 1.13668 26219 ft 413 kts 226°
2026-04-24 22:46 51.18606 1.10453 25752 ft 410 kts 226°
2026-04-24 22:46 51.16625 1.07177 25274 ft 407 kts 226°
2026-04-24 22:47 51.14683 1.03969 24804 ft 404 kts 226°
2026-04-24 22:47 51.12736 1.00759 24330 ft 401 kts 226°
2026-04-24 22:47 51.10807 0.97581 23860 ft 398 kts 226°
2026-04-24 22:47 51.08889 0.94427 23391 ft 395 kts 226°
2026-04-24 22:48 51.06987 0.91302 22923 ft 392 kts 226°
2026-04-24 22:48 51.05121 0.88240 22463 ft 389 kts 226°
2026-04-24 22:48 51.03243 0.85163 21999 ft 387 kts 226°
2026-04-24 22:48 51.01384 0.82121 21537 ft 384 kts 226°
2026-04-24 22:49 50.99527 0.79086 21074 ft 381 kts 226°
2026-04-24 22:49 50.97683 0.76077 20613 ft 378 kts 226°
2026-04-24 22:49 50.95853 0.73092 20153 ft 376 kts 226°
2026-04-24 22:49 50.94043 0.70146 19697 ft 373 kts 226°
2026-04-24 22:50 50.92252 0.67233 19244 ft 371 kts 226°
2026-04-24 22:50 50.90449 0.64306 18789 ft 368 kts 226°
2026-04-24 22:50 50.88676 0.61441 18340 ft 366 kts 226°
2026-04-24 22:50 50.86891 0.58569 17886 ft 363 kts 226°
2026-04-24 22:51 50.85136 0.55740 17438 ft 361 kts 226°
2026-04-24 22:51 50.83576 0.52671 17073 ft 355 kts 243°
2026-04-24 22:51 50.82935 0.49016 16730 ft 348 kts 269°
2026-04-24 22:51 50.83379 0.45299 16350 ft 343 kts 296°
2026-04-24 22:52 50.84801 0.42361 15989 ft 338 kts 320°
2026-04-24 22:52 50.86620 0.40046 15675 ft 333 kts 321°
2026-04-24 22:52 50.88361 0.37646 15352 ft 328 kts 317°
2026-04-24 22:52 50.89937 0.35087 15038 ft 323 kts 313°
2026-04-24 22:53 50.91370 0.32462 14736 ft 319 kts 309°
2026-04-24 22:53 50.92740 0.29795 14438 ft 314 kts 308°
2026-04-24 22:53 50.94083 0.27127 14144 ft 310 kts 308°
2026-04-24 22:53 50.95424 0.24433 13848 ft 305 kts 308°
2026-04-24 22:54 50.96715 0.21803 13532 ft 302 kts 308°
2026-04-24 22:54 50.97999 0.19179 13176 ft 300 kts 308°
2026-04-24 22:54 50.99280 0.16562 12816 ft 299 kts 308°
2026-04-24 22:54 51.00548 0.13977 12463 ft 297 kts 307°
2026-04-24 22:55 51.01595 0.11156 12067 ft 297 kts 289°
2026-04-24 22:55 51.01981 0.07995 11718 ft 294 kts 275°
2026-04-24 22:55 51.02145 0.04747 11384 ft 292 kts 274°
2026-04-24 22:55 51.02281 0.01547 11032 ft 291 kts 274°
2026-04-24 22:56 51.02422 -0.01655 10684 ft 290 kts 274°
2026-04-24 22:56 51.02570 -0.04814 10340 ft 288 kts 274°
2026-04-24 22:56 51.02726 -0.08021 9991 ft 287 kts 274°
2026-04-24 22:56 51.02881 -0.11144 9649 ft 285 kts 275°
2026-04-24 22:57 51.03039 -0.14279 9307 ft 284 kts 275°
2026-04-24 22:57 51.03195 -0.17375 8968 ft 282 kts 275°
2026-04-24 22:57 51.03352 -0.20501 8626 ft 281 kts 275°
2026-04-24 22:57 51.03506 -0.23585 8288 ft 279 kts 275°
2026-04-24 22:58 51.03656 -0.26618 7956 ft 278 kts 275°
2026-04-24 22:58 51.03809 -0.29711 7616 ft 277 kts 275°
2026-04-24 22:58 51.03957 -0.32745 7283 ft 275 kts 275°
2026-04-24 22:58 51.04104 -0.35739 6954 ft 274 kts 275°
2026-04-24 22:59 51.04252 -0.38763 6621 ft 273 kts 275°
2026-04-24 22:59 51.04396 -0.41754 6292 ft 271 kts 275°
2026-04-24 22:59 51.04679 -0.47673 5639 ft 269 kts 275°
2026-04-24 23:00 51.04971 -0.50623 5285 ft 268 kts 292°
2026-04-24 23:00 51.06084 -0.52899 4984 ft 264 kts 327°
2026-04-24 23:00 51.07812 -0.53719 4713 ft 259 kts
2026-04-24 23:00 51.09448 -0.52782 4454 ft 254 kts 40°
2026-04-24 23:01 51.10437 -0.50537 4216 ft 248 kts 70°
2026-04-24 23:01 51.10893 -0.47925 4013 ft 243 kts 78°
2026-04-24 23:01 51.11226 -0.45295 3814 ft 238 kts 79°
2026-04-24 23:01 51.11550 -0.42719 3627 ft 233 kts 79°
2026-04-24 23:02 51.11876 -0.40248 3382 ft 228 kts 78°
2026-04-24 23:02 51.12208 -0.37797 2951 ft 225 kts 78°
2026-04-24 23:02 51.12543 -0.35384 2520 ft 224 kts 78°
2026-04-24 23:02 51.12883 -0.32972 2154 ft 214 kts 77°
2026-04-24 23:03 51.13204 -0.30797 1837 ft 197 kts 77°
2026-04-24 23:03 51.13510 -0.28701 1419 ft 188 kts 77°
2026-04-24 23:03 51.13779 -0.26719 1081 ft 178 kts 78°
2026-04-24 23:03 51.14027 -0.24834 798 ft 171 kts 78°
2026-04-24 23:04 51.14250 -0.23110 903 ft 161 kts 78°
2026-04-24 23:04 51.14505 -0.21208 1243 ft 193 kts 79°
2026-04-24 23:04 51.14753 -0.19070 1752 ft 191 kts 81°
2026-04-24 23:04 51.14919 -0.17025 2021 ft 184 kts 89°
2026-04-24 23:05 51.14543 -0.15064 1988 ft 192 kts 127°
2026-04-24 23:05 51.13457 -0.13849 2019 ft 196 kts 161°
2026-04-24 23:05 51.12210 -0.13351 2500 ft 176 kts 169°
2026-04-24 23:05 51.11017 -0.12997 3179 ft 175 kts 170°
2026-04-24 23:06 51.09861 -0.12671 3836 ft 173 kts 170°
2026-04-24 23:06 51.08689 -0.12343 4437 ft 175 kts 170°
2026-04-24 23:06 51.07753 -0.12082 4757 ft 186 kts 170°
2026-04-24 23:06 51.06582 -0.11755 5138 ft 198 kts 170°
2026-04-24 23:07 51.05171 -0.11485 5556 ft 213 kts 181°
2026-04-24 23:07 51.03759 -0.12220 5950 ft 221 kts 215°
2026-04-24 23:07 51.02845 -0.14073 6334 ft 222 kts 248°
2026-04-24 23:07 51.02453 -0.16371 6722 ft 224 kts 258°
2026-04-24 23:08 51.02173 -0.18792 6845 ft 225 kts 261°
2026-04-24 23:08 51.01915 -0.21200 6852 ft 224 kts 261°
2026-04-24 23:08 51.01659 -0.23616 6855 ft 224 kts 261°
2026-04-24 23:08 51.01400 -0.26063 6856 ft 224 kts 261°
2026-04-24 23:09 51.01142 -0.28501 6856 ft 224 kts 261°
2026-04-24 23:09 51.00885 -0.30920 6856 ft 224 kts 261°
2026-04-24 23:09 51.00626 -0.33364 6856 ft 224 kts 261°
2026-04-24 23:09 51.00366 -0.35809 6856 ft 224 kts 261°
2026-04-24 23:10 51.00109 -0.38231 6856 ft 224 kts 261°
2026-04-24 23:10 50.99855 -0.40620 6850 ft 223 kts 261°
2026-04-24 23:10 50.99601 -0.43003 6699 ft 215 kts 261°
2026-04-24 23:10 50.99359 -0.45269 6509 ft 205 kts 261°
2026-04-24 23:11 50.99129 -0.47436 6322 ft 196 kts 261°
2026-04-24 23:11 50.98905 -0.49531 6117 ft 188 kts 261°
2026-04-24 23:11 50.98732 -0.51571 5787 ft 186 kts 271°
2026-04-24 23:11 50.99170 -0.53438 5407 ft 185 kts 311°
2026-04-24 23:12 51.00245 -0.54426 5062 ft 183 kts 343°
2026-04-24 23:12 51.01487 -0.54870 4716 ft 183 kts 350°
2026-04-24 23:12 51.02739 -0.55222 4366 ft 183 kts 351°
2026-04-24 23:12 51.03990 -0.55561 4017 ft 183 kts 351°
2026-04-24 23:13 51.05226 -0.55895 3672 ft 183 kts 351°
2026-04-24 23:13 51.06479 -0.56232 3323 ft 183 kts 351°
2026-04-24 23:13 51.07746 -0.56379 2959 ft 183 kts
2026-04-24 23:13 51.08821 -0.55390 2591 ft 182 kts 51°
2026-04-24 23:14 51.09308 -0.53598 2356 ft 173 kts 76°
2026-04-24 23:14 51.09592 -0.51802 2257 ft 159 kts 73°
2026-04-24 23:14 51.09930 -0.50194 2161 ft 152 kts 70°
2026-04-24 23:14 51.10379 -0.48675 2092 ft 153 kts 62°
2026-04-24 23:15 51.10908 -0.47184 2015 ft 153 kts 60°
2026-04-24 23:15 51.11429 -0.45733 2034 ft 153 kts 65°
2026-04-24 23:15 51.11756 -0.44112 2063 ft 153 kts 77°
2026-04-24 23:15 51.11966 -0.42472 2088 ft 153 kts 79°
2026-04-24 23:16 51.12158 -0.40810 2113 ft 153 kts 81°
2026-04-24 23:16 51.12274 -0.39126 2141 ft 153 kts 85°
2026-04-24 23:16 51.12369 -0.37425 2165 ft 153 kts 85°
2026-04-24 23:16 51.12479 -0.35722 2176 ft 156 kts 81°
2026-04-24 23:17 51.12744 -0.34006 1884 ft 160 kts 76°
2026-04-24 23:17 51.12997 -0.32301 1548 ft 153 kts 78°
2026-04-24 23:17 51.13209 -0.30709 1343 ft 144 kts 78°
2026-04-24 23:17 51.13399 -0.29351 1211 ft 147 kts 78°
2026-04-24 23:18 51.13546 -0.28268 1135 ft 149 kts 78°
2026-04-24 23:18 51.13767 -0.26635 948 ft 148 kts 78°
2026-04-24 23:18 51.13982 -0.25074 757 ft 149 kts 78°
2026-04-24 23:18 51.14210 -0.23448 594 ft 151 kts 78°
2026-04-24 23:19 51.14436 -0.21820 388 ft 148 kts 78°
2026-04-24 23:19 51.14635 -0.20315 212 ft 132 kts 78°
2026-04-24 23:19 51.14805 -0.19073 198 ft 83 kts 77°
2026-04-24 23:19 51.14877 -0.18548 198 ft 32 kts 78°
2026-04-24 23:20 51.14914 -0.18279 198 ft 24 kts 78°
2026-04-24 23:20 51.14959 -0.18041 198 ft 21 kts 70°
2026-04-24 23:20 51.15035 -0.17835 198 ft 18 kts 51°
2026-04-24 23:20 51.15080 -0.17761 198 ft 6 kts 23°
2026-04-24 23:21 51.15137 -0.17762 198 ft 9 kts 353°
2026-04-24 23:21 51.15209 -0.17776 198 ft 9 kts 358°
2026-04-24 23:21 51.15257 -0.17728 198 ft 9 kts 66°
2026-04-24 23:21 51.15274 -0.17614 198 ft 11 kts 77°
2026-04-24 23:22 51.15288 -0.17508 198 ft 7 kts 78°
2026-04-24 23:22 51.15304 -0.17411 198 ft 8 kts 62°
2026-04-24 23:22 51.15360 -0.17376 198 ft 10 kts 348°
2026-04-24 23:22 51.15420 -0.17397 198 ft 10 kts 348°
2026-04-24 23:23 51.15498 -0.17424 198 ft 12 kts 348°
2026-04-24 23:23 51.15593 -0.17457 198 ft 15 kts 348°
2026-04-24 23:23 51.15675 -0.17485 198 ft 11 kts 348°
2026-04-24 23:23 51.15723 -0.17504 198 ft 6 kts 337°
2026-04-24 23:24 51.15748 -0.17577 198 ft 9 kts 266°
2026-04-24 23:24 51.15733 -0.17695 198 ft 12 kts 257°
2026-04-24 23:24 51.15713 -0.17839 198 ft 14 kts 258°
2026-04-24 23:24 51.15695 -0.17982 198 ft 10 kts 268°
2026-04-24 23:25 51.15734 -0.18044 198 ft 9 kts 347°
2026-04-24 23:25 51.15799 -0.18068 198 ft 5 kts 348°
2026-04-24 23:25 51.15832 -0.18063 198 ft 5 kts 32°
2026-04-24 23:25 51.15849 -0.18017 198 ft 3 kts 78°
2026-04-24 23:26 51.15856 -0.17969 198 ft 3 kts 78°
2026-04-24 23:26 51.15858 -0.17951 198 ft 0 kts 79°